This demonstration page uses our WeatherBlox Daily Observations layout. Learn more.

38.89511, -77.03637

Hourly Observations for September 15, 2017

Temp ( °F °C ) Dew Point ( °F °C ) Humidity (%) Winds ( mph kmh ) Pressure ( in mb ) Visibility ( mi km ) Precip ( " mm )
12:52 am 00:52 Cloudy 72 22.2 66 18.9 82 82 NNW 5 7 29.97 1015 10 16.09344 0 0
1:52 am 01:52 Partly Cloudy 71 21.7 65 18.3 81 81 N 3 6 29.97 1015 10 16.09344 0 0
2:52 am 02:52 Partly Cloudy 69 20.6 65 18.3 87 87 N 3 6 29.97 1015 10 16.09344 0 0
3:52 am 03:52 Mostly Cloudy 69 20.6 66 18.9 90 90 N 5 7 29.97 1015 10 16.09344 0 0
4:52 am 04:52 Mostly Clear 68 20 64 17.8 87 87 N 5 7 30 1016 10 16.09344 0 0
5:52 am 05:52 Mostly Clear 67 19.4 63 17.2 87 87 N 8 13 30 1016 10 16.09344 0 0
6:52 am 06:52 Mostly Sunny 67 19.4 63 17.2 87 87 NNW 7 11 30.03 1017 10 16.09344 0 0
7:52 am 07:52 Mostly Sunny 69 20.6 63 17.2 81 81 NNW 12 19 30.03 1017 10 16.09344 0 0
8:52 am 08:52 Mostly Sunny 72 22.2 64 17.8 76 76 N 10 17 30.06 1018 10 16.09344 0 0
9:52 am 09:52 Mostly Sunny 75 23.9 65 18.3 71 71 NW 7 11 30.09 1019 10 16.09344 0 0
10:52 am 10:52 Mostly Sunny 79 26.1 65 18.3 62 62 Calm 30.09 1019 10 16.09344 0 0
11:52 am 11:52 Mostly Sunny 79 26.1 65 18.3 62 62 NE 7 11 30.06 1018 10 16.09344 0 0
12:52 pm 12:52 Mostly Cloudy 80 26.7 64 17.8 58 58 NE 6 9 30.06 1018 10 16.09344 0 0
1:52 pm 13:52 Mostly Cloudy 83 28.3 65 18.3 55 55 N 3 6 30.06 1018 10 16.09344 0 0
2:52 pm 14:52 Mostly Cloudy 82 27.8 64 17.8 55 55 WSW 3 6 30.03 1017 10 16.09344 0 0
3:52 pm 15:52 Mostly Cloudy 81 27.2 64 17.8 57 57 S 6 9 30.03 1017 10 16.09344 0 0
4:52 pm 16:52 Mostly Cloudy 80 26.7 63 17.2 56 56 S 8 13 30.03 1017 10 16.09344 0 0
5:06 pm 17:06 Mostly Cloudy 80 26.7 64 17.8 58 58 S 6 9 30.06 1018 10 16.09344 0 0
5:52 pm 17:52 Mostly Cloudy 80 26.7 65 18.3 60 60 S 6 9 30.03 1017 10 16.09344 0 0
6:52 pm 18:52 Mostly Cloudy 80 26.7 62 16.7 54 54 S 6 9 30.06 1018 10 16.09344 0 0
7:52 pm 19:52 Partly Cloudy 78 25.6 65 18.3 64 64 Calm 30.06 1018 10 16.09344 0 0
8:52 pm 20:52 Mostly Clear 76 24.4 67 19.4 74 74 Calm 30.09 1019 10 16.09344 0 0
9:52 pm 21:52 Mostly Clear 74 23.3 68 20 82 82 Calm 30.09 1019 10 16.09344 0 0
10:13 pm 22:13 Mostly Clear 75 23.9 67 19.4 76 76 SW 5 7 30.09 1019 10 16.09344 0 0
10:52 pm 22:52 Mostly Clear 74 23.3 65 18.3 74 74 Calm 30.09 1019 10 16.09344 0 0
11:52 pm 23:52 Mostly Clear 72 22.2 65 18.3 79 79 Calm 30.09 1019 10 16.09344 0 0

Powered by AerisWeather